Regional Weather Roundup
Issued by NWS Upton, NY

Current Version | Previous Version | Text Only | Print | Product List | Glossary On
Versions: 1 2 3 4 5 6 7 8 9 10 11 12 13 14 15 16 17 18 19 20 21 22 23 24 25 26 27 28 29 30 31 32 33 34 35 36 37 38 39 40 41 42 43 44 45 46 47 48 49
000
ASUS41 KOKX 031108
RWROKX

REGIONAL WEATHER ROUNDUP
NATIONAL WEATHER SERVICE NEW YORK NY
700 AM EDT SUN MAY 03 2015

NOTE: "FAIR" INDICATES FEW OR NO CLOUDS BELOW 12,000 FEET WITH NO
SIGNIFICANT WEATHER AND/OR OBSTRUCTIONS TO VISIBILITY.

NYZ071-072-176-178-NJZ106-104-031200-
NEW YORK CITY METRO AREA


CITY           SKY/WX    TMP DP  RH WIND       PRES   REMARKS
CENTRAL PARK   SUNNY     52  36  54 VRB3      30.10R
LAGUARDIA APRT MOSUNNY   52  36  54 SW6       30.07R
KENNEDY INTL   MOSUNNY   50  42  74 SW6       30.09R
NEWARK/LIBERTY MOSUNNY   50  40  68 W3        30.08R
BRNX BOT. GARD   N/A     52  37  58 W3        30.09R
TETERBORO      SUNNY     46  38  73 CALM      30.07R
$$

NYZ177-179-078>081-031200-
LONG ISLAND NEW YORK

CITY           SKY/WX    TMP DP  RH WIND       PRES   REMARKS
FARMINGDALE    SUNNY     47  43  86 CALM      30.08R
ISLIP          MOSUNNY   48  43  82 SW5       30.06R
SHIRLEY        SUNNY     43  41  93 CALM      30.08R
WESTHAMPTON    SUNNY     40  37  89 CALM      30.09R
MONTAUK POINT    N/A     49  44  83 CALM      30.09R
$$

NYZ052-065-067-031200-
HUDSON VALLEY

CITY           SKY/WX    TMP DP  RH WIND       PRES   REMARKS
WHITE PLAINS   SUNNY     48  39  71 CALM      30.06R
NEWBURGH       SUNNY     46  43  87 CALM      30.07R
MONTGOMERY     MOSUNNY   43  40  89 CALM      30.06R
POUGHKEEPSIE   MOSUNNY   45  39  79 CALM      30.06R
ALBANY         MOSUNNY   51  42  71 S3        30.05R
$$

NJZ001-105-106-008-010-013-015-019>022-104-031200-
NEW JERSEY

CITY           SKY/WX    TMP DP  RH WIND       PRES   REMARKS
NEWARK/LIBERTY MOSUNNY   50  40  68 W3        30.08R
TETERBORO      SUNNY     46  38  73 CALM      30.07R
CALDWELL       SUNNY     43  40  89 CALM      30.08R
MORRISTOWN     SUNNY     41  37  87 CALM      30.07R
SOMERVILLE     SUNNY     41  38  89 CALM      30.06R
SUSSEX         SUNNY     43  41  93 CALM      30.08R
ANDOVER          N/A     44  43  96 CALM      30.08R
TRENTON        SUNNY     48  40  73 CALM      30.07R
MILLVILLE      CLOUDY    47  44  90 CALM      30.07R
ATLANTIC CITY  CLOUDY    53  42  66 S3        30.08R
WRIGHTSTOWN    SUNNY     46  44  91 CALM      30.06R
TOMS RIVER     SUNNY     39  36  87 CALM      30.09R
BELMAR         SUNNY     46  37  71 CALM      30.08R
$$

PAZ047>061-062-071-031200-
EASTERN PENNSYLVANIA

CITY           SKY/WX    TMP DP  RH WIND       PRES   REMARKS
PHILADELPHIA   PTSUNNY   51  43  74 E5        30.09R
ALLENTOWN      MOSUNNY   45  41  86 CALM      30.08R
SCRANTON       SUNNY     46  32  58 E6        30.08R
$$

CTZ002-004>006-009-010-012-RIZ004-006-007-MAZ004-011-015-031200-
SOUTHERN NEW ENGLAND
 IN CT

CITY           SKY/WX    TMP DP  RH WIND       PRES   REMARKS
BRADLEY INTL   MOSUNNY   47  37  68 S3        30.04R
HARTFORD       FAIR      46  36  68 S5        30.05R
DANBURY        SUNNY     42  37  82 CALM      30.07R
WTRBRY/OXFORD  SUNNY     45  36  70 W5        30.07R
BRIDGEPORT     SUNNY     49  44  83 W3        30.07R
MERIDEN        SUNNY     43  38  82 SE3       30.06R
NEW HAVEN      MOSUNNY   48  43  82 CALM      30.07R
CHESTER        FAIR      48  37  66 W3        30.05R
GROTON         MOSUNNY   47  44  90 SW5       30.07R
WILLIMANTIC    MOSUNNY   42  38  85 CALM      30.06R

 IN RI

CITY           SKY/WX    TMP DP  RH WIND       PRES   REMARKS
PROVIDENCE     PTSUNNY   49  36  61 SW7       30.06R
BLOCK ISLAND   CLOUDY    46  39  76 W10       30.07R
WESTERLY       MOSUNNY   47  43  86 SW6       30.07R

 IN MA

CITY           SKY/WX    TMP DP  RH WIND       PRES   REMARKS
BOSTON         MOSUNNY   50  40  68 SW8       30.04R
WORCESTER      PTSUNNY   48  36  63 W10       30.03R
WESTFIELD      CLOUDY    47  40  76 CALM      30.04R
PROVINCETOWN   SUNNY     45  43  93 S10       30.06R
NANTUCKET      SUNNY     44  42  93 CALM      30.08R
$$

ANZ330-335-338-340-345-350-353-355-031200-
COASTAL MARINE OBSERVATIONS


STATION/POSITION TIME  SKY/WX   TEMP    WIND        PRES    VSBY  WAVE
                                AIR SEA DIR/SP/G                  HT/PER
                 (UTC)          (F)     (DEG/KT/KT) (MB)    (MI)  (FT/S)
NY HARB ENTRANCE 1050            49 49  190/  4/  4 1018.1          5/ 9
4S FIRE IS       1003               47                N/A           5/ 8
20S FIRE ISLAND  1050            46 46  170/  2/  4 1018.7          5/ 9
GREAT SOUTH BAY  1015            50 56  230/  6/  8   N/A
23SW MTP         1050            45 44  220/  2/  4 1018.7          5/ 9
HUDSON CANYON    NOT AVBL
EXECUTION ROCKS  NOT AVBL
WESTERN LI SOUND NOT AVBL
CENTRAL LI SOUND NOT AVBL
EASTERN LI SOUND 1000            46     250/  6/  8   N/A
ROBBINS REEF     1000            50     230/  5/  6 1016.5
$$


>>>>>>>>>>>>>>>>>>>>>>>>>>>> KEY <<<<<<<<<<<<<<<<<<<<<<<<<<<
>                                                          <
>     SKY/WX - SKY CONDITION/PRESENT WEATHER               <
>     TMP    - TEMPERATURE IN FAHRENHEIT                   <
>     DP     - DEWPOINT IN FAHRENHEIT                      <
>     RH     - RELATIVE HUMIDITY IN PERCENT                <
>     WIND   - DIRECTION AND SPEED IN MPH                  <
>     PRES   - MEAN SEA LEVEL PRESSURE IN INCHES OF HG     <
>     WCI    - WIND CHILL INDEX                            <
>     VSB    - VISIBILITY IN MILES                         <
>     HX     - HEAT INDEX                                  <
>     TC     - TEMPERATURE IN CELSIUS                      <
>     VRB    - VARIABLE WIND DIRECTION                     <
>                                                          <
>>>>>>>>>>>>>>>>>>>>>>>>>>>> KEY <<<<<<<<<<<<<<<<<<<<<<<<<<<





USA.gov is the U.S. government's official web portal to all federal, state and local government web resources and services.